Tracking 20712 objects as of 28-May-2020
HD Live streaming from Space Station
objects crossing your sky now

DELTA 1 DEB

Track DELTA 1 DEB now!
10-day predictions


NORAD ID: 42564
Int'l Code: 1972-058JX
Perigee: 838.3 km
Apogee: 971.3 km
Inclination: 99.1 °
Period: 102.9 minutes
Semi major axis: 7275 km
RCS: Unknown
Launch date: July 23, 1972
Source: United States (US)
Launch site: AIR FORCE WESTERN TEST RANGE (AFWTR)

Note: This is SATELLITE DEBRIS
aabbcc
Your satellite tracking list
Your tracking list is empty




NASA's NSSDC Master Catalog

Two Line Element Set (TLE):
1 42564U 72058JX  20143.59167914  .00000410  00000-0  30444-3 0  9998
2 42564  99.0504  71.9659 0091423 231.8638 253.0665 13.98892225415687
Source of the keplerian elements: AFSPC